| time (UTC) | temp F | wind direction | speed MPH | gust MPH | rain 1hr in | rain 24hr in | rain mn in | humidity % | barometer mb |
| 20260506203456 | 60 | 103 | 1.0 | 5.0 | 0.00 | 0.13 | 0.13 | 99 | 1009.3 |
| 20260506202953 | 60 | 106 | 4.0 | 9.0 | 0.07 | 0.13 | 0.13 | 99 | 1009.5 |
| 20260506202450 | 60 | 184 | 3.0 | 10.0 | 0.12 | 0.13 | 0.13 | 99 | 1009.4 |
| 20260506201946 | 60 | 127 | 4.0 | 7.0 | 0.05 | 0.12 | 0.12 | 99 | 1009.5 |
| 20260506201444 | 60 | 167 | 3.0 | 7.0 | 0.00 | 0.11 | 0.11 | 99 | 1009.5 |
| 20260506200940 | 60 | 136 | 0.0 | 3.0 | 0.00 | 0.11 | 0.11 | 99 | 1009.7 |
| 20260506200437 | 59 | 130 | 1.0 | 5.0 | 0.00 | 0.11 | 0.11 | 99 | 1009.7 |
| 20260506195933 | 60 | 107 | 3.0 | 7.0 | 0.00 | 0.11 | 0.11 | 99 | 1009.8 |
| 20260506195430 | 60 | 138 | 9.0 | 12.0 | 0.07 | 0.11 | 0.11 | 99 | 1010.0 |
| 20260506194927 | 60 | 89 | 0.0 | 7.0 | 0.00 | 0.10 | 0.10 | 99 | 1009.8 |
| 20260506194424 | 60 | 142 | 2.0 | 3.0 | 0.00 | 0.10 | 0.10 | 99 | 1010.0 |
| 20260506193921 | 60 | 226 | 5.0 | 5.0 | 0.05 | 0.10 | 0.10 | 99 | 1010.0 |
| 20260506193418 | 60 | 116 | 3.0 | 9.0 | 0.05 | 0.10 | 0.10 | 99 | 1010.0 |
| 20260506192914 | 60 | 118 | 2.0 | 14.0 | 0.00 | 0.09 | 0.09 | 99 | 1010.1 |
| 20260506192411 | 60 | 215 | 4.0 | 10.0 | 0.00 | 0.09 | 0.09 | 99 | 1010.1 |
| 20260506191908 | 60 | 138 | 2.0 | 7.0 | 0.00 | 0.09 | 0.09 | 99 | 1010.0 |
| 20260506191405 | 60 | 187 | 6.0 | 12.0 | 0.07 | 0.09 | 0.09 | 99 | 1010.0 |
| 20260506190902 | 60 | 113 | 2.0 | 3.0 | 0.09 | 0.08 | 0.08 | 99 | 1010.2 |
| 20260506190358 | 60 | 266 | 7.0 | 10.0 | 0.05 | 0.07 | 0.07 | 99 | 1010.3 |
| 20260506185855 | 60 | 144 | 3.0 | 5.0 | 0.00 | 0.07 | 0.07 | 99 | 1010.5 |
| 20260506185352 | 61 | 114 | 1.0 | 7.0 | 0.00 | 0.07 | 0.07 | 99 | 1010.4 |
| 20260506184849 | 61 | 95 | 3.0 | 9.0 | 0.07 | 0.07 | 0.07 | 99 | 1010.2 |
| 20260506184346 | 61 | 206 | 3.0 | 10.0 | 0.07 | 0.07 | 0.07 | 99 | 1010.3 |
| 20260506183844 | 61 | 136 | 1.0 | 7.0 | 0.00 | 0.06 | 0.06 | 99 | 1010.0 |
| 20260506183338 | 61 | 147 | 1.0 | 3.0 | 0.05 | 0.06 | 0.06 | 99 | 1010.3 |
| 20260506182831 | 62 | 108 | 3.0 | 14.0 | 0.00 | 0.05 | 0.05 | 98 | 1010.3 |
| 20260506182327 | 62 | 165 | 2.0 | 9.0 | 0.00 | 0.05 | 0.05 | 98 | 1010.3 |
| 20260506181825 | 62 | 223 | 4.0 | 7.0 | 0.00 | 0.05 | 0.05 | 97 | 1010.4 |
| 20260506181323 | 62 | 306 | 5.0 | 7.0 | 0.00 | 0.05 | 0.05 | 98 | 1010.4 |
| 20260506180820 | 62 | 144 | 3.0 | 7.0 | 0.00 | 0.05 | 0.05 | 98 | 1010.1 |
| 20260506180316 | 62 | 117 | 1.0 | 3.0 | 0.07 | 0.05 | 0.05 | 98 | 1009.8 |
| 20260506175812 | 62 | 111 | 3.0 | 5.0 | 0.07 | 0.05 | 0.05 | 97 | 1010.3 |
| 20260506175309 | 62 | 165 | 2.0 | 9.0 | 0.00 | 0.04 | 0.04 | 96 | 1010.1 |
| 20260506174806 | 63 | 113 | 0.0 | 5.0 | 0.05 | 0.04 | 0.04 | 96 | 1010.3 |
| 20260506174303 | 63 | 168 | 2.0 | 3.0 | 0.05 | 0.03 | 0.03 | 95 | 1010.4 |
| 20260506173801 | 63 | 83 | 1.0 | 7.0 | 0.05 | 0.03 | 0.03 | 94 | 1010.8 |
| 20260506173258 | 64 | 111 | 2.0 | 9.0 | 0.07 | 0.02 | 0.02 | 93 | 1010.9 |
| 20260506172754 | 65 | 103 | 1.0 | 7.0 | 0.12 | 0.02 | 0.02 | 92 | 1010.7 |
| 20260506172251 | 65 | 161 | 3.0 | 9.0 | 0.05 | 0.01 | 0.01 | 89 | 1011.0 |
| 20260506171749 | 66 | 106 | 0.0 | 3.0 | 0.00 | 0.00 | 0.00 | 88 | 1011.1 |
| 20260506171246 | 66 | 204 | 1.0 | 3.0 | 0.00 | 0.00 | 0.00 | 88 | 1011.2 |
| 20260506170743 | 66 | 95 | 2.0 | 5.0 | 0.00 | 0.00 | 0.00 | 86 | 1010.9 |
| 20260506170239 | 67 | 125 | 3.0 | 3.0 | 0.00 | 0.00 | 0.00 | 84 | 1011.0 |
| 20260506165738 | 67 | 113 | 2.0 | 5.0 | 0.00 | 0.00 | 0.00 | 82 | 1011.1 |
| 20260506165235 | 67 | 113 | 0.0 | 3.0 | 0.00 | 0.00 | 0.00 | 81 | 1011.0 |
| 20260506164732 | 68 | 147 | 1.0 | 3.0 | 0.00 | 0.00 | 0.00 | 80 | 1010.7 |
| 20260506164229 | 68 | 210 | 7.0 | 10.0 | 0.00 | 0.00 | 0.00 | 79 | 1010.8 |
| 20260506163726 | 68 | 131 | 3.0 | 7.0 | 0.00 | 0.00 | 0.00 | 79 | 1010.8 |
| 20260506163220 | 69 | 133 | 3.0 | 10.0 | 0.00 | 0.00 | 0.00 | 77 | 1011.0 |
| 20260506162717 | 68 | 208 | 2.0 | 5.0 | 0.00 | 0.00 | 0.00 | 78 | 1011.0 |
| 20260506162215 | 68 | 147 | 3.0 | 5.0 | 0.00 | 0.00 | 0.00 | 79 | 1011.3 |
| 20260506161712 | 68 | 128 | 5.0 | 7.0 | 0.00 | 0.00 | 0.00 | 79 | 1011.1 |
| 20260506161209 | 67 | 241 | 2.0 | 5.0 | 0.00 | 0.00 | 0.00 | 79 | 1011.3 |
| 20260506160706 | 67 | 161 | 4.0 | 7.0 | 0.00 | 0.00 | 0.00 | 79 | 1011.5 |
| 20260506160203 | 67 | 162 | 5.0 | 7.0 | 0.00 | 0.00 | 0.00 | 80 | 1011.5 |
| 20260506155701 | 67 | 130 | 2.0 | 7.0 | 0.00 | 0.00 | 0.00 | 80 | 1011.5 |
| 20260506155158 | 66 | 112 | 1.0 | 5.0 | 0.00 | 0.00 | 0.00 | 81 | 1011.3 |
| 20260506153300 | 66 | 141 | 5.0 | 10.0 | 0.00 | 0.00 | 0.00 | 82 | 1011.8 |
| 20260506152757 | 66 | 110 | 0.0 | 9.0 | 0.00 | 0.00 | 0.00 | 82 | 1012.0 |
| 20260506152254 | 66 | 137 | 5.0 | 9.0 | 0.00 | 0.00 | 0.00 | 81 | 1012.0 |
| 20260506151753 | 66 | 160 | 2.0 | 5.0 | 0.00 | 0.00 | 0.00 | 82 | 1012.6 |
| 20260506151249 | 65 | 131 | 2.0 | 3.0 | 0.00 | 0.00 | 0.00 | 81 | 1012.6 |
| 20260506150746 | 65 | 215 | 4.0 | 10.0 | 0.00 | 0.00 | 0.00 | 82 | 1012.5 |
| 20260506150243 | 65 | 169 | 5.0 | 9.0 | 0.00 | 0.00 | 0.00 | 83 | 1012.7 |
| 20260506145740 | 65 | 248 | 2.0 | 7.0 | 0.00 | 0.00 | 0.00 | 83 | 1012.6 |
| 20260506145236 | 65 | 91 | 1.0 | 9.0 | 0.00 | 0.00 | 0.00 | 83 | 1012.5 |
| 20260506144734 | 64 | 104 | 1.0 | 14.0 | 0.00 | 0.00 | 0.00 | 84 | 1012.6 |
| 20260506144231 | 64 | 233 | 2.0 | 5.0 | 0.00 | 0.00 | 0.00 | 84 | 1012.3 |
| 20260506143728 | 64 | 133 | 1.0 | 5.0 | 0.00 | 0.00 | 0.00 | 84 | 1012.5 |
| 20260506143225 | 64 | 181 | 3.0 | 5.0 | 0.00 | 0.00 | 0.00 | 84 | 1012.6 |
| 20260506142724 | 65 | 119 | 3.0 | 10.0 | 0.00 | 0.00 | 0.00 | 83 | 1012.5 |
| 20260506142222 | 65 | 209 | 7.0 | 9.0 | 0.00 | 0.00 | 0.00 | 83 | 1012.3 |
| 20260506141719 | 65 | 114 | 3.0 | 12.0 | 0.00 | 0.00 | 0.00 | 83 | 1012.3 |
| 20260506141218 | 64 | 115 | 3.0 | 5.0 | 0.00 | 0.00 | 0.00 | 83 | 1012.2 |
| 20260506140715 | 64 | 173 | 3.0 | 9.0 | 0.00 | 0.00 | 0.00 | 84 | 1012.8 |
| 20260506140212 | 65 | 176 | 7.0 | 12.0 | 0.00 | 0.00 | 0.00 | 83 | 1012.6 |
| 20260506135708 | 64 | 123 | 2.0 | 7.0 | 0.00 | 0.00 | 0.00 | 85 | 1012.5 |
| 20260506135205 | 64 | 114 | 0.0 | 9.0 | 0.00 | 0.00 | 0.00 | 84 | 1012.1 |
| 20260506134701 | 64 | 150 | 3.0 | 9.0 | 0.00 | 0.00 | 0.00 | 84 | 1012.1 |
| 20260506134158 | 63 | 167 | 2.0 | 5.0 | 0.00 | 0.00 | 0.00 | 85 | 1012.1 |
| 20260506133655 | 63 | 122 | 2.0 | 7.0 | 0.00 | 0.00 | 0.00 | 85 | 1012.1 |
| 20260506133151 | 63 | 127 | 4.0 | 7.0 | 0.00 | 0.00 | 0.00 | 85 | 1012.5 |
| 20260506132649 | 64 | 111 | 3.0 | 15.0 | 0.00 | 0.00 | 0.00 | 85 | 1012.1 |
| 20260506132146 | 63 | 144 | 4.0 | 9.0 | 0.00 | 0.00 | 0.00 | 85 | 1012.0 |
| 20260506131644 | 63 | 155 | 6.0 | 9.0 | 0.00 | 0.00 | 0.00 | 85 | 1012.5 |
| 20260506131139 | 63 | 127 | 4.0 | 9.0 | 0.00 | 0.00 | 0.00 | 86 | 1012.7 |
| 20260506130636 | 63 | 105 | 1.0 | 7.0 | 0.00 | 0.00 | 0.00 | 86 | 1012.5 |
| 20260506130134 | 63 | 146 | 7.0 | 10.0 | 0.00 | 0.00 | 0.00 | 85 | 1012.2 |
| 20260506125632 | 62 | 139 | 4.0 | 5.0 | 0.00 | 0.00 | 0.00 | 86 | 1012.8 |
| 20260506125129 | 62 | 128 | 2.0 | 9.0 | 0.00 | 0.00 | 0.00 | 87 | 1012.7 |
| 20260506124627 | 62 | 116 | 3.0 | 7.0 | 0.00 | 0.00 | 0.00 | 87 | 1012.6 |
| 20260506124125 | 62 | 111 | 0.0 | 9.0 | 0.00 | 0.00 | 0.00 | 87 | 1012.9 |
| 20260506123622 | 62 | 114 | 1.0 | 5.0 | 0.00 | 0.00 | 0.00 | 87 | 1012.9 |
| 20260506123121 | 62 | 118 | 1.0 | 7.0 | 0.00 | 0.00 | 0.00 | 87 | 1012.8 |
| 20260506122617 | 61 | 116 | 0.0 | 9.0 | 0.00 | 0.00 | 0.00 | 88 | 1012.9 |
| 20260506122115 | 61 | 139 | 3.0 | 5.0 | 0.00 | 0.00 | 0.00 | 88 | 1013.0 |
| 20260506121612 | 61 | 135 | 2.0 | 9.0 | 0.00 | 0.00 | 0.00 | 89 | 1013.0 |
| 20260506121108 | 61 | 146 | 2.0 | 5.0 | 0.00 | 0.00 | 0.00 | 89 | 1012.9 |
| 20260506120606 | 61 | 115 | 1.0 | 5.0 | 0.00 | 0.00 | 0.00 | 89 | 1012.9 |
| 20260506120103 | 61 | 149 | 4.0 | 7.0 | 0.00 | 0.00 | 0.00 | 89 | 1013.1 |
| 20260506115602 | 61 | 115 | 3.0 | 7.0 | 0.00 | 0.00 | 0.00 | 89 | 1012.9 |
| 20260506115100 | 61 | 119 | 0.0 | 3.0 | 0.00 | 0.00 | 0.00 | 89 | 1013.0 |
| 20260506114557 | 61 | 105 | 1.0 | 3.0 | 0.00 | 0.00 | 0.00 | 89 | 1012.8 |
| 20260506114055 | 60 | 148 | 3.0 | 7.0 | 0.00 | 0.00 | 0.00 | 89 | 1012.9 |
| 20260506113552 | 60 | 167 | 4.0 | 5.0 | 0.00 | 0.00 | 0.00 | 89 | 1013.0 |
| 20260506113050 | 60 | 106 | 0.0 | 3.0 | 0.00 | 0.00 | 0.00 | 90 | 1012.8 |
| 20260506112546 | 60 | 114 | 1.0 | 7.0 | 0.00 | 0.00 | 0.00 | 89 | 1012.9 |
| 20260506112043 | 61 | 182 | 3.0 | 5.0 | 0.00 | 0.00 | 0.00 | 89 | 1013.0 |
| 20260506111541 | 61 | 110 | 0.0 | 10.0 | 0.00 | 0.00 | 0.00 | 88 | 1013.0 |
| 20260506111038 | 61 | 104 | 3.0 | 7.0 | 0.00 | 0.00 | 0.00 | 89 | 1012.8 |
| 20260506110536 | 60 | 189 | 4.0 | 5.0 | 0.00 | 0.00 | 0.00 | 89 | 1013.1 |
| 20260506110033 | 59 | 87 | 1.0 | 3.0 | 0.00 | 0.00 | 0.00 | 91 | 1013.3 |
| 20260506105529 | 59 | 98 | 3.0 | 9.0 | 0.00 | 0.00 | 0.00 | 91 | 1013.1 |
| 20260506105026 | 59 | 122 | 0.0 | 3.0 | 0.00 | 0.00 | 0.00 | 91 | 1013.3 |
| 20260506104524 | 59 | 181 | 5.0 | 9.0 | 0.00 | 0.00 | 0.00 | 90 | 1013.1 |
| 20260506104022 | 59 | 187 | 2.0 | 3.0 | 0.00 | 0.00 | 0.00 | 90 | 1013.3 |
| 20260506103519 | 60 | 106 | 1.0 | 3.0 | 0.00 | 0.00 | 0.00 | 90 | 1013.3 |
| 20260506103016 | 59 | 97 | 1.0 | 3.0 | 0.00 | 0.00 | 0.00 | 90 | 1013.3 |
| 20260506102514 | 59 | 132 | 5.0 | 7.0 | 0.00 | 0.00 | 0.00 | 90 | 1013.2 |
| 20260506102011 | 59 | 145 | 0.0 | 5.0 | 0.00 | 0.00 | 0.00 | 90 | 1012.9 |
| 20260506101507 | 59 | 120 | 0.0 | 5.0 | 0.00 | 0.00 | 0.00 | 91 | 1012.8 |
| 20260506101005 | 59 | 117 | 2.0 | 2.0 | 0.00 | 0.00 | 0.00 | 91 | 1012.9 |
| 20260506100503 | 59 | 89 | 2.0 | 3.0 | 0.00 | 0.00 | 0.00 | 91 | 1012.9 |
| 20260506100001 | 59 | 121 | 0.0 | 3.0 | 0.00 | 0.00 | 0.00 | 91 | 1012.8 |
| 20260506095459 | 59 | 142 | 0.0 | 3.0 | 0.00 | 0.00 | 0.00 | 91 | 1012.9 |
| 20260506094955 | 59 | 179 | 5.0 | 7.0 | 0.00 | 0.00 | 0.00 | 91 | 1012.6 |
| 20260506094453 | 59 | 108 | 0.0 | 3.0 | 0.00 | 0.00 | 0.00 | 91 | 1012.9 |
| 20260506093950 | 59 | 139 | 4.0 | 5.0 | 0.00 | 0.00 | 0.00 | 91 | 1012.9 |
| 20260506093449 | 59 | 141 | 3.0 | 5.0 | 0.00 | 0.00 | 0.00 | 90 | 1012.9 |
| 20260506092946 | 59 | 119 | 0.0 | 3.0 | 0.00 | 0.00 | 0.00 | 90 | 1012.8 |
| 20260506092444 | 59 | 116 | 0.0 | 3.0 | 0.00 | 0.00 | 0.00 | 90 | 1012.9 |
| 20260506091940 | 59 | 112 | 1.0 | 3.0 | 0.00 | 0.00 | 0.00 | 89 | 1012.8 |
| 20260506091439 | 59 | 164 | 0.0 | 2.0 | 0.00 | 0.00 | 0.00 | 89 | 1013.0 |
| 20260506090936 | 59 | 118 | 3.0 | 14.0 | 0.00 | 0.00 | 0.00 | 89 | 1012.9 |
| 20260506090433 | 60 | 125 | 2.0 | 7.0 | 0.00 | 0.00 | 0.00 | 89 | 1012.8 |
| 20260506085929 | 60 | 119 | 0.0 | 2.0 | 0.00 | 0.00 | 0.00 | 89 | 1012.9 |
| 20260506085426 | 59 | 168 | 3.0 | 9.0 | 0.00 | 0.00 | 0.00 | 89 | 1012.8 |
| 20260506084922 | 59 | 111 | 1.0 | 3.0 | 0.00 | 0.00 | 0.00 | 89 | 1012.8 |
| 20260506084420 | 60 | 87 | 3.0 | 3.0 | 0.00 | 0.00 | 0.00 | 88 | 1012.7 |
| 20260506083916 | 60 | 120 | 1.0 | 3.0 | 0.00 | 0.00 | 0.00 | 88 | 1012.9 |
| 20260506083413 | 60 | 94 | 3.0 | 5.0 | 0.00 | 0.00 | 0.00 | 88 | 1013.0 |
| 20260506082911 | 60 | 118 | 0.0 | 9.0 | 0.00 | 0.00 | 0.00 | 88 | 1012.9 |
| 20260506082408 | 60 | 120 | 1.0 | 2.0 | 0.00 | 0.00 | 0.00 | 88 | 1013.1 |
| 20260506081903 | 60 | 115 | 3.0 | 7.0 | 0.00 | 0.00 | 0.00 | 88 | 1012.7 |
| 20260506081402 | 60 | 111 | 0.0 | 5.0 | 0.00 | 0.00 | 0.00 | 88 | 1012.9 |
| 20260506080858 | 60 | 206 | 4.0 | 10.0 | 0.00 | 0.00 | 0.00 | 88 | 1013.1 |
| 20260506080355 | 60 | 118 | 2.0 | 5.0 | 0.00 | 0.00 | 0.00 | 88 | 1012.9 |
| 20260506073339 | 60 | 128 | 3.0 | 3.0 | 0.00 | 0.00 | 0.00 | 87 | 1012.7 |
| 20260506072836 | 60 | 106 | 1.0 | 3.0 | 0.00 | 0.00 | 0.00 | 87 | 1013.0 |
| 20260506072334 | 60 | 122 | 0.0 | 2.0 | 0.00 | 0.00 | 0.00 | 86 | 1013.0 |
| 20260506071831 | 60 | 122 | 1.0 | 2.0 | 0.00 | 0.00 | 0.00 | 86 | 1012.9 |
| 20260506071329 | 60 | 122 | 0.0 | 0.0 | 0.00 | 0.00 | 0.00 | 86 | 1013.0 |
| 20260506070826 | 61 | 118 | 1.0 | 2.0 | 0.00 | 0.00 | 0.00 | 85 | 1013.0 |
| 20260506070323 | 61 | 113 | 1.0 | 2.0 | 0.00 | 0.00 | 0.00 | 85 | 1012.7 |
| 20260506062300 | 62 | 109 | 3.0 | 3.0 | 0.00 | 0.00 | 0.00 | 82 | 1012.6 |
| 20260506061756 | 62 | 120 | 0.0 | 2.0 | 0.00 | 0.00 | 0.00 | 82 | 1012.7 |
| 20260506061253 | 62 | 120 | 1.0 | 5.0 | 0.00 | 0.00 | 0.00 | 81 | 1012.6 |
| 20260506060751 | 62 | 122 | 1.0 | 2.0 | 0.00 | 0.00 | 0.00 | 81 | 1012.8 |
| 20260506060249 | 62 | 115 | 0.0 | 5.0 | 0.00 | 0.00 | 0.00 | 80 | 1012.8 |
| 20260506051220 | 63 | 135 | 2.0 | 5.0 | 0.00 | 0.00 | 0.00 | 77 | 1013.0 |
| 20260506050719 | 63 | 108 | 0.0 | 7.0 | 0.00 | 0.00 | 0.00 | 77 | 1012.9 |
| 20260506050215 | 63 | 126 | 2.0 | 10.0 | 0.00 | 0.00 | 0.00 | 77 | 1012.9 |
| 20260506044706 | 63 | 121 | 4.0 | 7.0 | 0.00 | 0.00 | 0.00 | 77 | 1012.8 |
| 20260506044203 | 64 | 134 | 3.0 | 3.0 | 0.00 | 0.00 | 0.00 | 77 | 1012.9 |
| 20260506043701 | 64 | 194 | 3.0 | 5.0 | 0.00 | 0.00 | 0.00 | 77 | 1012.9 |
| 20260506043158 | 63 | 119 | 2.0 | 7.0 | 0.00 | 0.00 | 0.00 | 76 | 1013.1 |
| 20260506042657 | 63 | 114 | 1.0 | 7.0 | 0.00 | 0.00 | 0.00 | 77 | 1013.2 |
| 20260506042155 | 63 | 110 | 3.0 | 5.0 | 0.00 | 0.00 | 0.00 | 76 | 1012.9 |
| 20260506041653 | 64 | 129 | 1.0 | 2.0 | 0.00 | 0.00 | 0.00 | 76 | 1013.1 |
| 20260506041150 | 64 | 107 | 2.0 | 3.0 | 0.00 | 0.00 | 0.00 | 76 | 1013.1 |
| 20260506040647 | 64 | 94 | 1.0 | 3.0 | 0.00 | 0.00 | 0.00 | 76 | 1013.1 |
| 20260506040138 | 64 | 143 | 6.0 | 10.0 | 0.00 | 0.00 | 0.00 | 75 | 1013.3 |
| 20260506035635 | 64 | 117 | 1.0 | 3.0 | 0.00 | 0.00 | 0.00 | 75 | 1013.1 |
| 20260506035132 | 64 | 117 | 0.0 | 3.0 | 0.00 | 0.00 | 0.00 | 75 | 1013.3 |
| 20260506034629 | 64 | 140 | 2.0 | 12.0 | 0.00 | 0.00 | 0.00 | 75 | 1013.1 |
| 20260506034126 | 64 | 125 | 4.0 | 9.0 | 0.00 | 0.00 | 0.00 | 75 | 1013.1 |
| 20260506033623 | 64 | 150 | 3.0 | 7.0 | 0.00 | 0.00 | 0.00 | 74 | 1013.1 |
| 20260506033120 | 64 | 175 | 2.0 | 3.0 | 0.00 | 0.00 | 0.00 | 74 | 1013.3 |
| 20260506032617 | 64 | 108 | 1.0 | 9.0 | 0.00 | 0.00 | 0.00 | 74 | 1013.0 |
| 20260506032114 | 64 | 126 | 1.0 | 3.0 | 0.00 | 0.00 | 0.00 | 74 | 1013.0 |
| 20260506031611 | 64 | 232 | 3.0 | 5.0 | 0.00 | 0.00 | 0.00 | 73 | 1013.1 |
| 20260506031108 | 64 | 153 | 0.0 | 3.0 | 0.00 | 0.00 | 0.00 | 73 | 1013.0 |
| 20260506030607 | 64 | 138 | 2.0 | 5.0 | 0.00 | 0.00 | 0.00 | 73 | 1012.9 |
| 20260506030103 | 65 | 98 | 2.0 | 5.0 | 0.00 | 0.00 | 0.00 | 72 | 1013.2 |
| 20260506025600 | 65 | 118 | 1.0 | 7.0 | 0.00 | 0.00 | 0.00 | 72 | 1012.9 |
| 20260506025056 | 65 | 110 | 0.0 | 5.0 | 0.00 | 0.00 | 0.00 | 72 | 1013.1 |
| 20260506024554 | 65 | 138 | 2.0 | 3.0 | 0.00 | 0.00 | 0.00 | 71 | 1013.1 |
| 20260506024050 | 66 | 115 | 4.0 | 9.0 | 0.00 | 0.00 | 0.00 | 71 | 1012.9 |
| 20260506023546 | 66 | 165 | 3.0 | 10.0 | 0.00 | 0.00 | 0.00 | 70 | 1013.2 |
| 20260506023044 | 66 | 147 | 3.0 | 5.0 | 0.00 | 0.00 | 0.00 | 70 | 1012.9 |
| 20260506022541 | 66 | 150 | 3.0 | 5.0 | 0.00 | 0.00 | 0.00 | 70 | 1012.9 |
| 20260506022038 | 66 | 148 | 4.0 | 5.0 | 0.00 | 0.00 | 0.00 | 69 | 1013.0 |
| 20260506021536 | 66 | 120 | 4.0 | 10.0 | 0.00 | 0.00 | 0.00 | 70 | 1012.7 |
| 20260506021033 | 66 | 149 | 4.0 | 7.0 | 0.00 | 0.00 | 0.00 | 70 | 1012.8 |
| 20260506020530 | 67 | 141 | 3.0 | 9.0 | 0.00 | 0.00 | 0.00 | 70 | 1012.7 |
| 20260506020028 | 67 | 125 | 2.0 | 7.0 | 0.00 | 0.00 | 0.00 | 69 | 1012.6 |
| 20260506015525 | 67 | 136 | 1.0 | 3.0 | 0.00 | 0.00 | 0.00 | 69 | 1012.8 |
| 20260506015022 | 67 | 189 | 4.0 | 10.0 | 0.00 | 0.00 | 0.00 | 69 | 1012.5 |
| 20260506014519 | 67 | 115 | 1.0 | 9.0 | 0.00 | 0.00 | 0.00 | 70 | 1012.7 |
| 20260506014015 | 67 | 206 | 3.0 | 5.0 | 0.00 | 0.00 | 0.00 | 70 | 1012.5 |
| 20260506013513 | 67 | 115 | 0.0 | 3.0 | 0.00 | 0.00 | 0.00 | 70 | 1012.5 |
| 20260506013010 | 68 | 119 | 3.0 | 3.0 | 0.00 | 0.00 | 0.00 | 69 | 1012.3 |
| 20260506012506 | 68 | 140 | 1.0 | 7.0 | 0.00 | 0.00 | 0.00 | 69 | 1012.5 |
| 20260506012003 | 68 | 137 | 1.0 | 2.0 | 0.00 | 0.00 | 0.00 | 68 | 1012.5 |
| 20260506011500 | 68 | 133 | 1.0 | 5.0 | 0.00 | 0.00 | 0.00 | 67 | 1012.3 |
| 20260506010956 | 69 | 186 | 5.0 | 7.0 | 0.00 | 0.00 | 0.00 | 67 | 1012.5 |
| 20260506010456 | 69 | 115 | 4.0 | 5.0 | 0.00 | 0.00 | 0.00 | 67 | 1012.3 |
| 20260506005951 | 69 | 137 | 2.0 | 5.0 | 0.00 | 0.00 | 0.00 | 66 | 1012.3 |
| 20260506005449 | 69 | 144 | 3.0 | 12.0 | 0.00 | 0.00 | 0.00 | 66 | 1012.0 |
| 20260506004944 | 69 | 115 | 2.0 | 2.0 | 0.00 | 0.00 | 0.00 | 66 | 1012.5 |
| 20260506004443 | 70 | 151 | 3.0 | 5.0 | 0.00 | 0.00 | 0.00 | 65 | 1012.3 |
| 20260506003938 | 70 | 128 | 2.0 | 3.0 | 0.00 | 0.00 | 0.00 | 64 | 1012.0 |
| 20260506003435 | 70 | 113 | 1.0 | 2.0 | 0.00 | 0.00 | 0.00 | 64 | 1012.0 |
| 20260506002931 | 70 | 150 | 3.0 | 5.0 | 0.00 | 0.00 | 0.00 | 63 | 1011.9 |
| 20260506002427 | 71 | 112 | 3.0 | 5.0 | 0.00 | 0.00 | 0.00 | 63 | 1011.9 |
| 20260506001923 | 71 | 111 | 3.0 | 7.0 | 0.00 | 0.00 | 0.00 | 63 | 1011.4 |
| 20260506001420 | 71 | 145 | 5.0 | 14.0 | 0.00 | 0.00 | 0.00 | 62 | 1011.5 |
| 20260506000918 | 71 | 123 | 6.0 | 9.0 | 0.00 | 0.00 | 0.00 | 62 | 1011.1 |
| 20260506000416 | 72 | 178 | 6.0 | 14.0 | 0.00 | 0.00 | 0.00 | 62 | 1011.0 |
| 20260505235912 | 72 | 266 | 9.0 | 10.0 | 0.00 | 0.00 | 0.00 | 61 | 1011.1 |
| 20260505235410 | 72 | 230 | 3.0 | 12.0 | 0.00 | 0.00 | 0.00 | 61 | 1011.0 |
| 20260505234907 | 72 | 170 | 6.0 | 12.0 | 0.00 | 0.00 | 0.00 | 61 | 1010.8 |
| 20260505234404 | 72 | 140 | 2.0 | 7.0 | 0.00 | 0.00 | 0.00 | 61 | 1010.5 |
| 20260505233901 | 73 | 216 | 3.0 | 15.0 | 0.00 | 0.00 | 0.00 | 60 | 1010.6 |
| 20260505233358 | 73 | 195 | 3.0 | 14.0 | 0.00 | 0.00 | 0.00 | 60 | 1010.5 |
| 20260505232855 | 73 | 136 | 2.0 | 9.0 | 0.00 | 0.00 | 0.00 | 60 | 1010.3 |
| 20260505232354 | 73 | 134 | 7.0 | 15.0 | 0.00 | 0.00 | 0.00 | 59 | 1010.1 |
| 20260505231850 | 73 | 139 | 8.0 | 14.0 | 0.00 | 0.00 | 0.00 | 59 | 1010.1 |
| 20260505231347 | 73 | 130 | 4.0 | 9.0 | 0.00 | 0.00 | 0.00 | 60 | 1010.0 |
| 20260505230845 | 74 | 196 | 7.0 | 15.0 | 0.00 | 0.00 | 0.00 | 59 | 1010.0 |
| 20260505230342 | 74 | 124 | 1.0 | 12.0 | 0.00 | 0.00 | 0.00 | 59 | 1009.9 |
| 20260505225839 | 74 | 199 | 4.0 | 10.0 | 0.00 | 0.00 | 0.00 | 59 | 1009.9 |
| 20260505225336 | 74 | 148 | 4.0 | 5.0 | 0.00 | 0.00 | 0.00 | 58 | 1009.8 |
| 20260505224831 | 75 | 121 | 2.0 | 12.0 | 0.00 | 0.00 | 0.00 | 58 | 1009.7 |
| 20260505224330 | 75 | 155 | 10.0 | 19.0 | 0.00 | 0.00 | 0.00 | 57 | 1009.8 |
| 20260505223826 | 75 | 257 | 9.0 | 21.0 | 0.00 | 0.00 | 0.00 | 57 | 1009.5 |
| 20260505223323 | 76 | 144 | 3.0 | 12.0 | 0.00 | 0.00 | 0.00 | 56 | 1009.5 |
| 20260505222819 | 76 | 192 | 4.0 | 17.0 | 0.00 | 0.00 | 0.00 | 55 | 1009.4 |
| 20260505222315 | 77 | 206 | 6.0 | 12.0 | 0.00 | 0.00 | 0.00 | 55 | 1009.4 |
| 20260505221812 | 77 | 114 | 7.0 | 17.0 | 0.00 | 0.00 | 0.00 | 55 | 1009.2 |
| 20260505221309 | 77 | 146 | 5.0 | 17.0 | 0.00 | 0.00 | 0.00 | 55 | 1009.3 |
| 20260505220806 | 77 | 154 | 1.0 | 7.0 | 0.00 | 0.00 | 0.00 | 55 | 1009.4 |
| 20260505220303 | 78 | 140 | 6.0 | 10.0 | 0.00 | 0.00 | 0.00 | 54 | 1009.2 |
| 20260505215802 | 78 | 175 | 10.0 | 22.0 | 0.00 | 0.00 | 0.00 | 53 | 1009.1 |
| 20260505215259 | 78 | 141 | 5.0 | 10.0 | 0.00 | 0.00 | 0.00 | 53 | 1009.1 |
| 20260505214756 | 78 | 148 | 13.0 | 26.0 | 0.00 | 0.00 | 0.00 | 52 | 1008.9 |
| 20260505214254 | 79 | 132 | 5.0 | 15.0 | 0.00 | 0.00 | 0.00 | 51 | 1009.0 |
| 20260505213751 | 78 | 245 | 3.0 | 9.0 | 0.00 | 0.00 | 0.00 | 53 | 1008.5 |
| 20260505213248 | 79 | 201 | 7.0 | 12.0 | 0.00 | 0.00 | 0.00 | 52 | 1008.6 |
| 20260505212743 | 79 | 217 | 7.0 | 12.0 | 0.00 | 0.00 | 0.00 | 52 | 1008.7 |
| 20260505212242 | 78 | 126 | 5.0 | 15.0 | 0.00 | 0.00 | 0.00 | 51 | 1008.7 |
| 20260505211738 | 78 | 150 | 7.0 | 12.0 | 0.00 | 0.00 | 0.00 | 52 | 1008.6 |
| 20260505211236 | 78 | 264 | 7.0 | 17.0 | 0.00 | 0.00 | 0.00 | 52 | 1008.7 |
| 20260505210732 | 78 | 99 | 4.0 | 17.0 | 0.00 | 0.00 | 0.00 | 53 | 1008.8 |
| 20260505210229 | 79 | 230 | 4.0 | 19.0 | 0.00 | 0.00 | 0.00 | 53 | 1008.7 |
| 20260505205726 | 79 | 101 | 3.0 | 10.0 | 0.00 | 0.00 | 0.00 | 52 | 1008.8 |
| 20260505205224 | 80 | 106 | 5.0 | 26.0 | 0.00 | 0.00 | 0.00 | 51 | 1008.7 |
| 20260505204720 | 80 | 112 | 4.0 | 17.0 | 0.00 | 0.00 | 0.00 | 51 | 1008.6 |
| 20260505204218 | 80 | 223 | 4.0 | 12.0 | 0.00 | 0.00 | 0.00 | 50 | 1008.5 |